Epoch 2023 Feb. 25.0 TT = JDT 2460000.5 T 2023 Feb. 25.46880 TT Rudenko q 2.1916917 (2000.0) P Q n 0.17585347 Peri. 237.56550 +0.90094774 -0.41211090 a 3.1552619 Node 146.20506 +0.43232523 +0.87937271 e 0.3053852 Incl. 14.13774 -0.03725667 +0.23847062 P 5.60 >From 79 observations 2011 Aug. 21-2022 Sept. 2, mean residual 0".4.
m1 = 16.5 + 5 logΔ + 10.0 log r